Overview Statistics Trail Chart Weather Telemetry Raw packets
 

This is the latest recevied weather packets stored in our database for station/object HI3LT-13. If no packets are shown the sender has not sent any weather packets the latest 10 day(s).

<< 45 46 47 48 49 50 51 >>
Time Temp. Humidity Pressure Rain* Wind** Luminosity Snow
1787926728 31.11° C 70% 1016 hPa 0 mm - - -
1787926127 32.22° C 74% 1016 hPa 0 mm - - -
1787925452 31.67° C 74% 1016 hPa 0 mm - - -
1787924851 30.56° C 74% 1016 hPa 0 mm - - -
1787924250 27.78° C 74% 1016 hPa 0 mm - - -
1787923649 27.78° C 74% 1016 hPa 0 mm - - -
1787923048 28.33° C 74% 1016 hPa 0 mm - - -
1787922446 25.56° C 88% 1016 hPa 0 mm - - -
1787921845 25.56° C 86% 1016 hPa 0 mm - - -
1787921491 25.56° C 85% 1016 hPa 0 mm - - -
1787920890 25.56° C 85% 1016 hPa 0 mm - - -
1787920290 25.56° C 85% 1016 hPa 0 mm - - -
1787919689 25.56° C 85% 1016 hPa 0 mm - - -
1787919088 23.33° C 84% 1016 hPa 0 mm - - -
1787918487 23.33° C 88% 1016 hPa 0 mm - - -
1787917886 23.33° C 88% 1016 hPa 0 mm - - -
1787917285 23.33° C 88% 1016 hPa 0 mm - - -
1787916684 23.33° C 89% 1016 hPa 0 mm - - -
1787916083 23.33° C 89% 1016 hPa 0 mm - - -
1787915481 23.33° C 88% 1016 hPa 0 mm - - -
1787914881 23.33° C 88% 1016 hPa 0 mm - - -
1787914279 23.89° C 88% 1016 hPa 0 mm - - -
1787913678 23.89° C 87% 1016 hPa 0 mm - - -
1787913077 23.89° C 87% 1016 hPa 0 mm - - -
1787912476 24.44° C 87% 1015 hPa 0 mm - - -

* Rain latest hour (hover to see other rain measurements)
** Current wind speed in m/s (hover to see current wind gust speed)